Flag for Canada Weather past 2 weeks in New Westminster, British Columbia, Canada

Now
56 °F

Cool.


Feels Like: 55 °F
Forecast: 54 / 58 °F
Wind: 5 mph from Southeast

Location: P. Meadows Coastal Station

Current Time: Jun 2, 2015 at 8:53:12 AM

Latest Report: Jun 2, 2015 at 8:00 AM


Visibility: N/A

Pressure: 29.96 "Hg

Humidity: 96%

Dew point: 55 °F

Location of New WestminsterLocation

Historic Weather in New Westminster — Graph

°F

New Westminster temperature yesterday

Maximum temperature yesterday: 68 °F (at 12:00 PM)
Minimum temperature yesterday: 56 °F (at 5:00 AM)
Average temperature yesterday: 61 °F

Past Weeks' High & Low Weather Summary

 TemperatureHumidityPressure
High80 °F (May 29, 4:00 PM)98% (May 22, 5:00 AM)30.18 "Hg (May 22, 5:00 AM)
Low50 °F (May 31, 5:00 AM)35% (May 31, 5:00 PM)29.76 "Hg (May 31, 11:00 PM)
Average63 °F72%29.97 "Hg
* Reported May 18 7:00 AM — Jun 2 7:00 AM, New Westminster, Weather by CustomWeather, © 2015

Note: Actual official high and low records may vary slightly from our data, if they occured in-between our weather recording intervals... More about our weather records

Advertising

New Westminster weather history for previous 24 hours

 ConditionsComfort  
Time TempWeatherWind HumidityBarometerVisibility
7:00 AM
Tue, Jun 2
55 °FCool.5 mph96%29.95 "HgN/A
6:00 AM55 °FCool.3 mph96%29.94 "HgN/A
5:00 AM55 °FCool.3 mph96%29.93 "HgN/A
4:00 AM55 °FCool.3 mph94%29.93 "HgN/A
3:00 AM55 °FCool.3 mph94%29.92 "HgN/A
2:00 AM56 °FCool.3 mph94%29.92 "HgN/A
1:00 AM57 °FCool.5 mph90%29.92 "HgN/A
12:00 AM58 °FCool.5 mph88%29.93 "HgN/A
11:00 PM
Mon, Jun 1
58 °FCool.3 mph84%29.93 "HgN/A
10:00 PM58 °FCool.3 mph89%29.92 "HgN/A
9:00 PM60 °FCool.2 mph78%29.92 "HgN/A
8:00 PM61 °FCool.3 mph74%29.91 "HgN/A
7:00 PM62 °FCool.3 mph72%29.90 "HgN/A
6:00 PM61 °FCool.3 mph78%29.89 "HgN/A
5:00 PM62 °FCool.3 mph76%29.89 "HgN/A
4:00 PM62 °FCool.3 mph75%29.90 "HgN/A
3:00 PM63 °FMild.3 mph70%29.90 "HgN/A
2:00 PM63 °FMild.5 mph70%29.90 "HgN/A
1:00 PM64 °FMild.7 mph66%29.89 "HgN/A
12:00 PM68 °FMild.5 mph55%29.88 "HgN/A
11:00 AM68 °FMild.5 mph57%29.87 "HgN/A
10:00 AM66 °FMild.6 mph60%29.86 "HgN/A
9:00 AM64 °FMild.5 mph69%29.85 "HgN/A
8:00 AM63 °FMild.3 mph71%29.83 "HgN/A
Weather by CustomWeather, © 2015

See weather overviewHow to use our weather pages